Wind_Speed
13 12 12 13 14 15 17 19 22 24 25 25 23 20 19 19 18 18 17 17 18 19 20 21 22 23 24 25 25 26 27 27 28 30 31 33 34 35 35 36 39 41 41 42 42 42 44 45 45 45 45 45 46 45 45 44 44 44 45 46 46 45 45 45 46 46 44 41 40 37 34 32 33 34 36 34 29 25 25 25 24 25 26 27 26
11 12 11 11 11 11 12 14 16 19 21 23 22 20 18 17 15 14 12 12 13 14 14 16 17 19 21 22 23 25 26 27 27 29 31 33 34 36 37 38 40 42 43 44 44 44 44 44 45 45 44 45 46 45 45 44 44 44 44 45 45 45 45 45 45 45 44 42 40 39 37 35 34 36 37 33 28 27 27 28 28 27 26 26 26
8 9 9 9 10 10 11 11 10 11 12 15 16 15 13 12 10 8 7 7 8 9 10 12 14 16 18 20 21 23 24 26 28 29 31 33 35 37 38 40 41 42 44 45 45 44 44 44 45 44 43 44 45 44 43 43 43 43 43 43 43 42 42 42 42 43 43 42 40 39 38 38 37 36 34 32 30 30 31 31 30 26 23 24 24
8 6 6 7 8 9 10 10 10 9 10 11 11 10 9 8 7 5 4 4 5 7 8 10 13 15 17 19 21 22 23 25 27 30 31 33 35 37 39 40 42 43 44 45 45 44 44 44 44 43 43 44 45 44 43 43 42 42 42 42 42 40 38 38 39 39 41 41 41 41 39 36 35 34 33 33 34 33 33 33 30 25 23 24 23
9 7 5 6 7 8 8 8 8 8 8 8 8 8 7 6 4 3 3 3 5 7 9 11 13 15 18 20 21 23 24 26 27 29 30 32 34 36 38 39 41 43 44 45 45 45 44 45 44 43 43 44 45 44 43 43 43 43 42 41 41 40 38 38 38 38 40 41 41 41 38 35 34 35 35 36 35 34 34 33 30 26 25 25 23
11 9 7 5 6 7 8 8 8 8 8 9 9 8 7 6 5 5 6 8 10 12 13 15 16 18 19 21 23 24 26 27 29 30 31 32 34 36 37 38 40 42 43 44 44 44 45 45 45 44 44 45 46 46 44 44 43 43 42 41 40 39 39 39 38 38 41 40 39 39 38 36 35 35 36 37 36 35 34 31 29 27 27 26 24
12 12 10 8 7 7 7 8 9 9 10 11 12 11 10 10 11 11 13 14 16 18 18 19 20 21 22 23 25 27 28 29 30 31 32 33 34 36 37 38 40 41 42 43 44 44 45 45 45 44 44 45 46 46 45 44 44 43 42 40 39 39 39 40 39 39 41 40 38 38 38 38 38 38 38 37 36 34 33 31 30 29 28 28 26
14 14 13 12 11 10 9 9 9 9 11 13 15 15 15 15 17 18 19 20 21 22 22 22 23 24 26 27 28 30 31 32 33 33 34 34 35 36 37 38 40 41 42 43 43 44 44 44 45 45 45 45 45 44 43 42 42 43 41 39 39 38 38 39 39 39 39 39 38 39 41 41 41 40 39 37 36 33 31 31 31 30 29 28 25
14 14 14 14 15 14 14 14 12 11 12 14 16 18 19 20 21 22 23 24 24 24 24 26 27 28 30 31 32 33 34 35 35 35 36 36 36 37 38 39 40 41 42 43 43 43 43 43 44 44 44 44 43 43 42 41 41 41 40 39 39 38 37 37 38 38 38 38 39 40 43 43 42 41 39 36 35 32 30 30 30 29 28 27 26
13 13 14 15 16 16 17 17 16 16 15 15 16 17 19 21 22 24 25 26 26 27 29 30 31 33 34 34 35 36 37 37 37 36 37 37 37 37 38 40 40 41 41 42 43 43 43 43 44 44 44 44 43 42 41 41 41 40 39 39 38 39 38 37 39 40 39 38 39 42 45 45 44 42 39 34 33 33 32 31 30 28 28 28 28
13 13 13 14 15 16 16 17 17 17 17 18 18 19 20 21 22 24 25 27 28 30 32 33 34 35 35 36 37 38 39 39 37 37 37 37 37 37 38 39 39 40 40 41 43 44 44 43 43 43 43 43 42 41 40 39 39 39 39 39 39 39 39 37 39 42 41 39 41 44 47 47 45 41 36 34 32 32 32 32 31 30 29 28 28
12 12 12 13 13 14 15 16 16 17 17 18 19 20 21 21 22 23 24 26 27 29 30 32 34 35 36 37 38 39 39 38 37 36 36 36 36 36 36 37 37 38 38 39 40 41 41 42 41 41 41 40 39 38 37 37 38 38 39 39 39 40 40 38 40 42 41 39 42 46 47 46 43 39 34 32 32 31 31 32 32 31 30 30 28
11 11 12 12 13 14 15 15 16 16 17 18 19 20 20 21 21 22 22 23 24 25 27 28 30 32 34 36 38 39 39 37 35 34 34 34 34 34 35 36 36 36 37 37 38 38 39 40 41 41 40 39 38 37 37 37 38 38 39 38 39 41 42 40 40 41 41 41 44 47 44 40 39 37 32 30 33 33 31 30 30 31 32 31 28
9 9 10 12 12 13 14 14 15 15 16 17 18 18 19 19 19 19 20 21 22 22 24 25 27 30 32 34 36 37 37 35 34 33 32 31 31 32 33 34 35 36 36 36 37 38 38 39 40 41 41 40 39 38 38 37 38 39 39 39 40 41 43 42 41 41 43 44 43 41 38 35 34 34 32 33 34 33 28 25 26 27 28 28 26
8 8 9 10 11 12 13 14 14 15 16 17 17 18 18 19 19 20 21 22 23 23 25 26 28 30 32 34 36 37 36 33 31 31 32 32 30 31 32 33 34 35 35 35 36 37 38 38 39 40 40 41 40 39 38 38 38 39 40 41 42 42 41 41 41 42 44 44 42 39 37 34 32 33 33 32 31 28 24 22 22 23 25 26 26
9 8 8 9 10 11 12 13 14 15 16 17 17 18 19 20 21 22 24 25 25 26 27 28 29 30 31 33 36 37 37 35 32 29 29 30 31 32 32 34 35 36 36 35 35 35 36 37 38 39 39 39 39 39 38 37 38 40 41 39 40 41 41 41 41 42 44 44 44 42 40 37 35 34 33 29 28 26 25 24 24 25 26 26 26
12 12 12 11 11 12 12 13 13 14 16 17 17 18 19 20 21 22 24 25 25 26 27 28 29 30 31 32 34 35 36 37 36 31 28 27 29 31 33 34 36 38 38 36 35 35 36 36 37 38 39 39 38 38 39 37 38 40 40 39 40 43 43 40 39 41 41 40 40 40 38 36 36 36 33 29 28 28 28 29 29 30 30 29 29
14 14 14 15 15 15 15 16 16 16 17 17 18 19 19 20 21 22 23 24 24 25 26 27 27 28 30 31 32 33 33 34 35 34 32 29 28 28 31 34 37 39 40 39 38 37 37 37 36 37 38 38 38 38 38 38 40 41 41 41 42 42 40 37 38 41 40 38 39 39 36 33 35 36 34 32 32 33 33 33 32 32 34 35 33
14 15 15 16 17 17 18 19 20 20 20 20 20 21 22 22 23 23 24 25 26 26 26 27 27 27 28 29 30 31 31 31 32 32 32 32 31 29 29 33 36 39 40 40 41 41 40 39 38 37 36 37 37 37 36 36 39 41 41 41 41 41 39 37 38 39 37 37 39 40 37 35 36 38 37 36 36 35 35 33 32 34 36 36 33
13 14 15 16 17 19 20 22 22 23 23 23 23 23 23 24 24 25 26 27 28 28 28 29 29 28 28 29 30 31 31 31 32 32 33 34 34 33 32 32 34 37 38 40 41 42 42 41 40 37 36 35 36 37 36 35 36 37 37 38 42 45 42 39 39 40 39 38 38 39 38 38 39 40 40 39 38 36 35 34 34 35 36 35 33
14 14 15 15 16 17 18 20 22 22 23 24 24 23 23 24 25 26 26 27 29 30 30 31 32 31 31 31 30 31 32 32 33 34 34 34 35 36 35 34 33 34 36 38 40 42 42 41 40 38 37 36 35 35 35 34 33 35 38 40 41 41 38 37 38 38 36 35 35 36 37 37 38 39 39 39 39 38 37 36 35 35 36 35 33
15 15 16 16 16 16 17 18 20 21 22 23 25 25 24 25 26 27 28 29 30 31 32 32 33 34 34 33 32 31 31 32 33 33 34 35 35 36 37 36 34 33 35 37 38 40 41 40 40 38 38 37 36 35 34 33 32 34 35 35 33 33 35 36 35 34 34 33 34 37 38 37 37 39 39 39 39 38 37 36 36 37 37 35 33
18 18 18 18 18 18 18 19 20 21 22 23 25 26 26 27 28 28 29 31 32 32 33 33 34 35 36 35 33 31 30 30 31 32 33 34 35 37 38 37 34 32 34 37 38 39 39 39 39 39 38 39 39 37 34 31 30 31 31 30 29 31 35 36 35 36 38 37 36 39 40 39 38 39 40 39 37 36 35 36 38 39 38 35 33
21 22 22 23 23 22 23 23 23 23 24 24 25 26 27 28 29 29 30 31 32 33 34 34 34 35 36 36 35 33 31 31 31 32 33 34 35 36 38 38 35 31 32 35 37 38 38 38 38 38 39 39 40 40 37 31 29 30 31 31 30 32 35 36 36 38 40 41 43 43 43 41 40 40 39 36 34 35 37 39 40 41 39 37 34
25 25 26 26 26 27 27 27 27 27 27 27 27 28 29 29 29 29 29 30 32 33 34 35 34 35 36 36 36 35 33 33 32 33 33 34 35 35 36 37 37 35 33 34 34 36 38 39 38 37 38 39 40 41 39 34 29 28 29 29 30 33 36 38 39 39 39 42 45 45 44 43 42 39 36 34 34 36 39 42 43 42 40 37 34
26 26 27 28 28 28 29 29 30 30 29 30 30 30 30 31 31 31 30 30 31 32 34 35 35 36 36 37 37 37 36 35 34 33 33 34 35 35 36 37 38 37 37 36 34 34 35 37 38 37 37 38 40 41 40 37 32 28 28 29 31 34 36 38 41 42 42 41 42 43 44 44 42 40 39 37 38 39 40 42 44 44 41 37 34
26 27 28 29 29 30 31 32 33 33 33 33 34 34 33 33 33 33 32 31 31 31 32 34 35 36 36 37 38 38 38 38 35 33 33 34 35 36 37 37 37 38 38 37 35 34 34 35 37 38 37 37 38 39 40 39 36 32 31 32 35 37 38 39 40 42 43 42 41 42 43 44 44 44 44 43 42 41 40 41 44 44 41 37 33
26 27 28 29 30 31 32 33 34 35 36 36 36 37 36 36 35 35 34 32 32 31 32 32 33 34 34 35 37 38 39 38 36 34 33 34 35 37 38 38 37 38 38 38 37 36 36 36 36 37 38 37 37 38 40 41 41 37 34 34 36 38 38 40 41 42 42 42 42 43 44 45 45 44 43 43 42 40 39 41 44 44 40 36 33
28 29 30 31 32 32 33 34 35 37 38 38 38 38 38 37 38 38 37 35 34 34 34 34 34 32 32 34 35 36 38 38 34 32 33 34 35 37 38 39 39 38 38 38 38 37 38 38 38 37 37 38 38 38 40 42 42 40 37 37 38 40 41 42 43 45 45 43 43 44 45 45 43 42 41 42 42 41 41 43 44 43 39 36 34
30 31 32 33 34 35 36 37 37 38 40 40 41 42 41 40 40 40 40 39 38 37 37 37 36 35 35 35 35 35 37 37 34 32 31 32 33 35 37 38 39 39 38 38 38 39 39 39 40 39 38 38 39 39 40 42 43 44 42 41 42 43 43 41 41 42 44 44 44 45 45 44 42 41 41 42 42 43 43 43 44 43 40 37 36
32 33 34 35 36 37 38 39 40 40 41 41 42 43 44 44 43 43 42 42 41 40 39 39 39 38 38 38 37 36 37 37 36 34 33 32 33 34 36 37 38 38 38 37 39 40 40 40 41 42 41 40 41 40 39 40 42 44 44 45 45 43 42 41 39 40 41 44 46 46 45 44 43 43 43 43 44 44 44 43 43 42 40 38 37
34 35 36 37 37 38 39 40 41 42 42 42 42 43 44 46 47 46 45 44 44 44 43 43 41 40 40 40 40 39 39 38 38 37 36 35 35 35 36 37 37 37 37 37 39 42 42 41 43 43 42 42 43 41 39 39 39 39 40 44 45 44 43 42 40 39 40 43 47 48 48 47 46 46 45 45 45 45 45 44 44 43 41 39 37
35 37 38 39 40 41 41 42 43 43 43 44 44 43 44 45 47 49 49 48 47 46 45 46 45 44 43 42 42 42 41 41 41 40 39 38 37 36 37 38 38 38 37 37 40 43 42 42 44 44 43 44 43 42 41 40 38 37 38 40 42 43 44 44 42 40 41 44 46 48 49 48 48 47 47 47 46 46 45 44 44 43 42 40 39
36 38 39 41 42 43 43 44 45 45 45 45 45 45 46 46 46 49 51 52 52 50 48 48 48 48 47 46 45 44 44 43 43 43 41 40 38 37 37 39 40 39 38 38 40 42 42 43 44 44 44 44 44 43 42 42 40 38 38 39 40 41 44 45 45 44 43 44 46 47 48 48 47 48 48 48 48 47 45 44 44 44 44 42 41
38 39 41 41 42 44 44 44 45 45 46 47 47 47 48 48 48 49 50 51 53 55 54 53 51 50 50 49 49 47 46 45 45 44 43 42 39 37 37 39 41 40 40 40 41 41 42 43 43 43 43 43 43 43 43 43 42 41 40 39 39 40 42 45 46 46 45 45 45 46 46 47 48 48 49 50 49 48 47 46 45 45 44 43 41
39 40 41 41 42 43 44 45 46 46 47 48 49 49 50 50 50 51 51 51 52 55 56 57 56 54 53 53 52 50 48 47 46 46 45 43 40 37 38 40 40 40 41 41 41 41 42 42 43 43 43 43 43 43 43 43 43 42 41 40 40 40 42 43 45 46 46 46 45 45 45 47 48 49 49 50 50 49 48 47 46 45 44 43 42
39 41 42 42 43 44 45 46 47 47 48 50 50 51 52 52 51 51 51 52 52 54 56 58 58 57 57 56 53 51 50 48 47 47 47 45 42 40 41 41 41 41 42 42 42 42 42 43 42 42 42 43 42 42 41 42 42 42 41 41 41 42 43 43 43 44 44 45 44 44 46 47 49 49 50 50 50 50 49 47 46 44 43 43 42
40 41 42 42 43 44 46 47 48 49 50 51 51 51 51 52 51 50 50 51 52 53 55 56 57 58 60 58 55 52 51 50 50 49 48 47 45 43 43 43 43 43 44 43 43 43 43 43 42 42 42 42 41 41 40 39 40 40 41 41 41 42 43 43 43 43 43 43 43 44 46 48 49 50 50 51 52 51 49 47 46 45 44 44 42
39 40 41 42 43 44 46 47 48 49 49 50 50 50 49 50 50 49 48 49 51 52 53 54 56 59 59 57 55 52 50 51 51 51 49 49 47 46 46 46 45 45 45 44 43 43 44 43 42 41 41 41 40 39 38 38 38 39 40 41 42 43 43 44 44 44 43 43 44 45 46 48 49 50 50 50 51 51 49 48 47 46 45 44 42
40 41 41 41 42 43 44 45 47 47 47 47 48 47 48 49 50 49 48 49 50 52 52 52 56 59 58 55 52 49 48 50 52 51 49 49 49 47 47 47 47 47 46 45 43 43 43 42 41 40 39 39 39 39 38 37 37 38 39 40 42 43 44 45 45 44 44 44 44 45 47 48 49 49 49 50 50 50 50 49 47 46 45 43 42
40 41 42 42 42 43 44 45 46 46 46 47 47 47 47 49 49 48 48 48 49 50 50 52 56 58 56 52 49 46 44 48 51 50 48 48 48 47 47 48 47 47 46 45 44 42 41 41 39 37 37 37 38 38 38 38 38 38 39 41 42 43 44 45 45 45 44 44 45 46 47 47 48 49 50 50 50 49 49 48 48 46 44 42 42
41 42 43 43 43 44 45 46 46 46 46 47 47 47 47 46 46 46 46 46 47 48 49 52 55 56 54 51 47 43 42 46 49 49 49 49 48 48 47 47 46 45 45 44 43 41 40 39 38 35 34 35 36 37 38 39 39 39 39 41 42 44 44 45 45 45 45 45 45 46 47 47 47 48 49 50 50 50 50 49 47 45 43 42 43
42 43 43 44 43 44 45 46 45 45 45 46 46 45 45 43 43 44 45 45 46 46 47 50 53 54 53 50 47 43 43 46 47 47 48 48 47 47 47 46 45 44 43 42 41 39 38 37 36 34 33 33 34 35 37 38 39 39 39 41 42 44 44 45 45 46 46 46 46 46 47 47 47 47 49 50 50 50 50 49 47 45 44 44 45
40 41 42 42 42 42 42 43 42 43 43 43 43 43 42 41 42 43 43 44 45 45 45 47 49 50 51 50 47 44 44 45 45 45 46 46 46 47 46 45 44 42 41 40 39 37 36 35 34 33 32 32 32 34 35 36 37 38 39 40 42 43 45 45 45 46 46 46 46 47 47 47 47 48 49 50 51 51 50 49 47 46 46 46 46
39 40 40 40 40 40 40 39 38 38 39 39 39 40 40 39 39 40 41 42 43 43 44 44 45 46 47 47 46 44 43 43 43 43 44 44 45 45 45 43 42 41 40 39 37 34 33 32 32 32 32 32 32 33 34 34 35 36 37 38 40 43 44 44 44 44 45 46 47 48 48 48 48 49 50 51 52 52 51 49 47 47 47 47 47
37 37 37 37 37 37 37 37 36 36 36 36 37 38 39 38 38 39 40 40 41 41 42 42 42 43 43 44 44 43 42 42 42 43 44 44 44 44 43 42 41 40 39 37 34 32 31 31 32 32 33 32 32 32 32 33 33 34 35 36 38 40 42 43 43 43 45 46 46 47 48 48 48 48 49 51 51 51 49 48 47 47 47 47 47
33 33 34 34 34 34 34 34 34 34 34 34 35 36 37 37 36 36 36 36 35 35 36 37 38 39 40 42 43 43 43 43 43 43 43 42 41 41 40 40 40 39 38 36 33 32 31 32 32 32 33 32 32 32 31 31 31 32 33 34 35 36 39 41 42 43 44 44 45 46 47 47 46 47 48 50 50 50 48 47 46 46 46 47 46
30 30 30 30 30 31 31 31 31 31 31 31 31 32 32 32 32 32 33 33 33 33 35 36 37 39 39 40 41 41 41 41 41 41 40 40 39 38 38 38 38 38 38 37 35 33 32 32 32 32 32 31 31 31 30 30 30 31 31 32 32 34 35 38 40 41 42 43 44 45 45 45 45 47 48 49 49 49 48 47 46 46 46 46 45
26 26 27 26 26 27 27 27 27 28 28 29 30 30 30 30 31 31 32 32 32 33 33 34 36 37 37 37 38 37 37 37 37 37 37 37 37 36 36 36 36 37 38 38 37 35 34 33 32 31 31 31 31 30 30 29 28 29 29 29 29 30 32 34 37 39 41 42 43 43 43 43 44 46 47 48 47 47 46 46 46 46 46 46 45
22 22 23 24 24 25 25 25 27 27 28 28 29 30 31 31 31 31 31 31 31 32 32 32 33 33 34 34 34 33 33 34 35 36 36 36 37 36 35 35 35 36 37 37 37 36 34 33 32 31 30 30 29 29 28 26 25 26 26 26 26 27 29 32 35 37 39 40 41 41 41 42 43 45 46 46 46 45 44 44 45 46 46 46 44
19 20 21 22 23 23 24 25 26 27 27 27 28 29 30 30 30 30 30 31 32 33 33 33 34 34 35 35 35 35 36 38 38 38 38 38 37 37 35 34 34 35 35 34 34 33 32 30 29 28 27 27 26 25 24 23 23 23 23 24 24 26 28 31 33 34 35 36 37 38 39 41 43 44 45 45 44 43 43 43 43 44 44 43 41
Wind_Direction
268 270 268 264 261 261 261 261 260 259 257 255 258 267 272 270 270 271 271 269 267 265 266 268 269 270 270 270 270 271 271 270 269 267 265 264 264 264 265 265 265 266 266 264 262 260 258 257 257 256 254 253 255 255 254 254 252 249 247 246 245 245 247 248 252 258 261 262 265 268 268 266 266 267 271 276 273 262 259 265 268 270 265 262 265
279 278 275 270 267 266 266 265 263 261 259 257 259 266 268 268 269 269 270 272 271 272 274 275 275 275 274 274 274 273 271 270 268 266 264 263 263 263 263 263 263 264 264 265 264 263 260 258 258 257 254 253 253 254 254 255 254 252 250 248 247 246 247 249 252 256 260 262 264 265 265 263 265 269 272 273 269 265 267 269 270 269 264 261 265
299 286 275 269 268 269 269 267 263 257 253 253 255 257 257 255 254 255 258 266 273 279 282 281 281 280 279 279 277 275 273 271 269 267 266 265 264 263 264 263 263 263 264 265 265 262 259 258 259 259 257 256 256 255 254 254 254 254 255 253 252 252 252 253 254 257 260 262 262 263 264 265 267 269 270 270 269 268 269 269 268 266 260 258 264
335 310 282 269 268 270 271 268 262 255 248 244 240 234 226 222 221 224 236 260 280 290 291 288 287 285 284 283 281 279 276 274 272 270 268 268 266 265 265 265 264 264 264 265 264 262 260 260 260 260 258 258 259 258 256 255 254 255 256 256 257 258 259 258 257 258 260 261 263 264 264 264 265 265 265 267 267 267 267 268 266 260 254 254 260
344 337 310 280 267 264 265 263 259 255 247 232 216 206 200 198 201 209 244 279 294 296 295 292 289 288 287 286 284 282 280 278 277 275 273 271 270 269 267 265 265 265 265 265 264 262 262 262 262 261 260 260 260 260 259 259 258 258 257 257 258 261 261 260 259 260 261 262 262 262 261 261 261 262 263 264 264 264 265 265 263 257 252 251 255
326 327 321 304 279 262 256 251 248 244 233 217 206 203 202 211 229 248 267 279 285 287 288 287 286 286 286 286 286 284 283 281 279 278 277 275 274 272 269 266 265 264 264 264 263 262 262 262 263 262 261 261 261 262 262 261 261 260 260 260 261 262 261 260 259 260 260 260 260 259 258 258 258 259 262 263 263 263 263 262 261 258 254 250 252
309 307 305 300 292 278 266 253 245 237 226 217 213 212 216 229 242 252 262 269 274 277 280 281 283 285 288 290 290 289 287 285 282 281 279 277 276 274 272 270 267 264 263 263 263 263 263 263 263 262 262 263 263 263 264 263 263 263 263 264 263 261 260 259 259 260 259 258 259 258 256 256 256 258 261 261 260 260 260 261 260 258 254 251 253
299 296 294 289 285 282 278 269 256 242 230 227 226 226 231 241 249 254 258 263 267 272 277 282 286 288 291 293 292 289 287 285 283 282 279 277 276 274 273 272 269 266 264 263 263 263 263 263 263 263 264 264 264 266 266 265 265 265 265 266 264 260 259 260 258 257 256 256 257 258 258 257 257 258 258 257 256 258 262 263 261 259 256 254 257
293 290 289 287 285 283 281 278 273 263 250 242 238 237 239 244 249 253 258 263 269 275 280 284 287 289 290 290 288 286 283 282 282 280 278 276 275 274 273 271 269 267 266 264 263 262 262 263 264 265 266 267 268 268 268 268 267 266 267 267 263 259 260 261 257 254 255 254 253 255 256 256 256 256 255 257 260 262 265 266 262 259 257 255 255
292 291 289 289 288 287 284 283 281 278 273 267 262 258 255 254 256 260 266 271 276 281 283 284 287 288 288 287 286 285 284 284 284 283 281 279 276 274 272 271 269 267 266 265 264 263 262 262 262 264 265 266 267 267 268 269 268 267 268 267 262 260 261 260 258 256 254 253 253 254 254 254 255 255 255 260 266 265 264 264 261 256 253 251 250
293 293 291 291 290 290 290 288 287 286 284 282 280 279 277 274 274 275 276 279 281 282 284 286 287 288 288 287 286 285 286 287 289 290 288 285 281 276 274 272 270 269 268 267 266 264 263 262 262 262 263 264 265 265 266 267 266 266 267 265 262 262 260 258 259 260 256 253 255 257 257 256 256 256 256 258 262 265 265 263 259 255 253 251 250
289 289 290 290 289 289 289 288 288 287 285 285 284 283 284 283 283 284 283 284 284 285 286 287 288 289 288 289 289 288 288 289 291 292 292 290 286 280 277 276 274 273 272 272 271 269 267 267 266 265 265 265 265 265 265 265 264 264 265 264 262 261 258 255 256 258 257 255 256 258 260 260 257 254 253 254 258 266 266 260 255 255 255 253 250
284 284 285 286 285 285 284 283 284 284 283 284 283 284 285 286 287 288 287 288 288 289 290 291 291 291 291 291 292 291 291 292 292 292 292 290 287 283 280 279 277 277 276 275 275 273 270 268 268 268 267 266 265 265 265 265 266 266 264 263 261 260 258 254 253 255 256 256 257 260 262 262 257 253 253 256 259 262 262 258 256 256 255 253 249
273 272 273 276 276 276 278 278 280 281 281 283 284 284 286 285 285 285 285 285 286 289 291 292 293 293 292 292 293 293 294 296 296 295 292 290 287 282 280 280 279 279 278 276 275 274 271 269 268 269 269 267 266 266 266 267 267 265 262 260 260 260 258 256 256 258 259 258 257 259 260 257 255 257 261 262 259 257 258 262 263 259 254 249 246
265 260 258 262 263 263 267 269 271 275 276 279 281 282 282 282 282 281 281 282 283 285 287 288 290 291 292 293 294 296 299 303 303 300 296 293 288 283 280 279 280 281 280 280 278 276 275 272 270 270 268 266 265 265 265 267 266 264 264 263 262 259 258 257 256 256 258 257 255 259 263 260 258 264 266 258 251 251 255 262 265 259 251 245 243
275 272 264 261 260 259 260 260 262 265 268 270 273 275 277 278 280 280 280 281 282 283 283 284 284 285 287 289 292 294 298 303 307 307 300 294 290 286 283 280 280 280 281 282 283 282 280 277 274 273 271 268 266 263 263 264 263 261 264 265 261 258 257 257 258 258 258 256 253 257 261 262 263 268 265 251 243 248 251 252 250 243 238 238 239
276 280 281 280 278 276 273 270 267 265 266 268 270 272 274 276 278 279 279 279 280 281 281 281 281 282 283 285 287 290 293 299 305 308 305 297 290 286 285 283 281 281 280 281 283 284 283 282 279 277 275 274 272 266 263 263 263 263 264 264 262 261 258 255 257 261 260 256 255 255 254 255 259 261 257 247 244 247 248 248 245 237 231 232 237
269 273 279 282 284 286 285 285 284 281 279 279 278 278 278 278 280 281 281 281 280 281 282 282 281 283 283 285 287 288 290 295 300 304 307 305 298 289 285 283 281 281 281 281 282 282 282 283 282 280 280 280 277 270 263 259 258 259 259 261 263 263 259 256 256 257 255 253 254 253 251 253 255 252 249 249 249 248 246 247 248 243 236 235 239
274 275 279 283 287 290 292 293 294 293 293 294 293 292 292 291 291 290 290 290 289 287 288 286 284 284 285 286 287 288 289 292 296 300 303 306 306 301 291 284 281 281 281 282 281 281 280 280 281 282 284 285 282 276 268 260 257 256 254 256 261 261 258 258 257 254 254 256 254 250 252 258 256 250 249 249 250 249 248 247 247 244 241 239 239
288 288 290 291 292 295 296 296 298 298 299 299 299 300 301 301 300 300 299 299 297 295 295 294 290 288 288 289 289 289 290 291 294 298 301 303 306 308 302 294 288 284 282 280 279 279 278 278 279 280 281 283 281 278 273 264 259 259 256 254 259 262 260 259 257 254 256 260 257 253 254 257 255 251 248 244 244 247 248 246 242 240 239 239 239
299 300 301 301 300 300 299 298 299 300 301 302 301 303 305 305 305 306 305 303 301 299 299 298 296 294 293 294 293 292 294 295 297 300 302 303 306 308 308 305 300 292 285 280 277 276 276 276 277 277 277 278 278 276 274 268 261 259 257 256 259 262 260 258 257 256 258 259 255 253 252 251 250 249 246 243 244 246 246 243 239 236 236 237 239
304 306 308 308 308 307 306 305 305 305 304 304 304 305 307 307 308 309 308 307 305 303 302 302 301 298 297 297 296 295 297 299 300 302 304 305 307 309 310 311 310 303 293 286 281 278 278 278 277 276 275 275 276 275 273 269 263 259 259 258 259 260 259 258 257 258 260 257 251 250 249 248 248 248 245 245 247 246 244 242 239 236 234 235 238
305 307 309 310 311 311 311 310 309 309 308 308 307 307 308 308 309 310 310 309 308 306 306 307 306 303 301 299 299 301 302 303 304 305 307 309 311 312 313 315 315 311 302 296 289 283 281 279 278 277 275 272 273 273 272 268 261 259 260 260 260 258 256 254 254 256 258 255 251 252 251 250 249 247 244 246 248 247 245 244 240 236 234 233 236
301 303 303 304 305 305 307 307 307 308 307 307 307 307 307 308 308 309 309 309 308 307 307 309 309 308 306 303 302 305 308 309 309 311 314 315 315 314 315 316 316 314 308 303 297 291 286 282 279 277 275 272 271 272 273 270 261 256 255 255 255 255 253 252 254 258 258 254 250 251 250 250 251 249 246 247 250 249 247 244 239 235 233 233 236
295 296 297 298 299 299 301 302 303 303 303 303 303 303 304 305 305 306 306 306 307 308 308 309 310 309 308 306 305 307 309 310 312 316 320 320 317 316 316 316 317 315 312 308 304 298 293 288 282 277 273 271 270 270 271 271 265 258 254 251 250 250 250 253 256 257 257 253 250 250 250 250 253 253 249 249 250 249 246 242 237 233 231 231 233
293 294 294 295 296 297 298 299 300 301 301 300 300 299 299 300 300 301 303 304 305 306 307 309 310 309 309 309 308 308 309 311 314 319 321 319 317 318 318 317 317 316 314 310 307 302 296 291 286 281 274 269 268 267 268 268 265 258 251 248 248 248 248 250 252 252 251 250 252 255 254 252 252 253 250 248 248 248 245 242 237 233 231 231 231
295 295 295 297 299 300 302 302 302 302 302 301 300 299 299 299 298 297 298 301 302 302 303 304 305 306 308 308 308 308 308 310 316 321 321 319 318 319 318 318 318 317 314 312 308 303 297 292 287 283 278 271 266 264 264 263 262 257 250 247 249 249 247 248 250 251 250 249 253 259 259 254 250 248 246 244 243 243 242 241 237 234 231 230 230
298 298 300 301 303 305 306 306 305 304 303 302 301 299 299 300 299 296 297 300 302 301 300 299 299 303 306 305 305 306 305 307 315 321 320 319 318 317 317 318 318 316 314 312 309 303 298 293 288 284 280 275 269 264 261 260 260 258 253 249 249 249 248 248 250 250 249 248 251 254 255 252 249 246 243 242 240 239 239 238 236 232 230 230 231
299 300 300 302 303 303 304 304 305 304 304 303 302 301 300 301 300 298 297 300 303 302 300 297 296 300 303 301 302 304 302 304 312 317 316 316 316 314 314 315 315 314 313 311 308 303 298 293 290 286 282 279 274 269 264 261 260 258 254 249 247 249 252 253 251 249 247 247 249 249 248 248 248 246 244 242 240 238 237 235 233 229 227 229 232
297 297 299 299 300 300 300 301 302 303 304 304 303 301 300 300 300 299 298 299 301 302 300 298 298 301 301 298 299 302 301 302 308 311 311 310 310 310 310 311 312 312 311 308 304 301 297 294 291 288 285 281 277 272 267 264 263 261 257 252 249 251 254 254 251 249 249 249 249 248 247 245 246 246 246 244 242 239 235 233 230 226 225 228 229
295 295 297 297 298 299 299 299 300 302 303 303 303 302 300 298 298 298 298 299 300 300 300 299 299 301 302 300 299 300 300 302 305 308 309 308 306 305 306 307 308 309 308 305 302 299 297 295 293 290 286 282 279 275 270 267 265 264 262 259 257 256 253 250 249 249 250 250 249 248 247 246 247 248 249 247 244 239 235 232 228 224 225 227 227
295 295 296 297 297 298 298 299 300 301 302 303 303 303 301 299 297 296 296 298 298 299 299 299 299 299 300 300 299 299 299 301 303 306 308 308 306 304 303 303 304 304 304 301 300 300 298 296 295 292 288 284 282 279 274 270 268 267 265 264 264 261 256 252 251 250 250 250 250 249 248 248 248 248 247 245 242 238 234 230 227 223 223 225 224
296 296 297 298 298 298 299 300 301 302 302 302 302 302 303 302 300 298 297 296 296 296 297 298 299 299 299 300 300 299 299 301 303 305 307 308 307 305 303 301 300 300 299 298 298 299 298 296 296 294 289 285 283 281 278 274 271 268 266 265 266 265 261 258 258 255 252 251 252 252 251 249 248 246 244 242 240 237 234 231 227 223 222 221 220
297 296 298 299 299 299 300 301 302 302 302 301 301 301 301 302 303 302 300 299 297 296 294 294 297 298 298 299 300 299 298 299 301 303 305 305 305 304 301 298 296 296 296 295 295 297 297 296 296 294 290 287 284 281 279 277 273 270 267 264 264 263 261 260 259 258 254 251 251 252 252 250 247 245 241 238 235 233 231 230 227 223 221 220 217
296 296 296 298 298 299 300 300 300 300 300 300 300 300 300 300 301 301 301 301 300 298 296 294 296 298 298 298 298 298 299 299 299 301 302 303 303 302 299 296 294 294 294 293 293 294 295 295 295 293 290 287 284 281 279 277 275 272 269 266 263 262 260 259 259 258 255 252 250 251 251 250 247 244 241 238 234 231 229 228 226 223 220 219 217
294 294 294 295 295 296 297 297 297 297 297 298 298 298 298 299 299 299 299 299 299 299 297 295 295 297 298 297 298 299 299 299 299 299 299 300 301 299 296 294 295 295 293 292 292 292 293 293 293 292 290 287 284 281 279 278 276 274 271 269 266 263 261 260 260 259 257 254 252 251 250 249 247 243 239 237 234 232 231 229 225 221 218 217 215
290 291 291 292 293 294 294 294 294 294 294 295 296 296 296 296 297 297 297 297 297 297 297 296 296 297 296 296 298 300 300 300 299 298 297 298 299 297 295 295 296 295 294 293 292 292 292 292 291 291 290 287 284 282 279 277 276 275 272 270 267 264 263 262 261 260 258 256 254 252 251 250 247 244 240 236 233 231 230 226 222 217 215 214 213
288 289 290 290 291 291 291 291 291 291 292 292 293 294 294 294 294 294 294 294 294 295 295 295 296 296 295 295 298 299 299 299 298 297 296 296 296 295 294 295 295 295 295 295 294 292 292 292 291 290 288 286 284 282 280 277 276 274 272 270 268 265 263 262 260 258 257 255 254 253 251 249 246 244 241 237 233 230 226 222 219 215 212 211 212
289 289 289 289 289 289 289 289 290 290 290 291 291 292 292 292 292 292 292 292 292 292 292 292 293 292 293 294 296 297 298 297 296 296 296 295 295 294 294 294 294 295 295 295 294 292 291 291 291 289 288 285 283 281 279 277 274 272 270 269 267 265 262 260 258 256 255 254 254 253 251 248 244 242 241 238 233 230 225 220 217 215 212 210 210
291 291 291 291 290 290 290 290 289 290 290 290 291 291 291 290 290 290 290 290 289 289 289 289 289 289 291 291 292 294 294 294 293 294 294 293 293 292 292 292 293 294 294 294 293 291 290 290 290 289 287 285 283 281 279 276 274 271 269 268 266 265 263 261 260 259 258 257 255 253 251 249 244 241 238 235 232 229 226 221 217 214 212 210 208
294 294 293 293 294 294 293 293 293 293 293 293 291 291 290 290 290 290 290 289 288 288 287 287 287 288 289 290 291 292 292 290 290 291 290 290 290 289 289 290 290 291 292 292 291 290 289 289 290 288 286 283 281 279 277 275 273 271 268 267 266 265 264 263 262 260 259 257 255 252 250 248 245 241 237 232 229 226 223 220 216 212 209 207 206
295 294 294 295 295 295 295 295 295 295 295 294 293 292 291 290 289 289 289 288 287 287 287 286 286 286 287 288 290 290 289 288 288 288 288 288 288 288 287 287 287 288 288 289 288 287 287 288 288 287 284 281 278 276 275 273 271 270 268 267 266 265 264 263 263 261 259 257 255 252 249 246 244 240 235 230 227 224 220 217 213 210 206 204 204
294 295 295 295 296 296 296 296 297 296 295 295 294 293 292 290 288 288 288 288 287 287 287 287 288 289 289 289 289 289 287 287 287 287 287 287 287 287 287 286 286 286 285 285 284 284 285 285 285 284 281 279 276 274 273 273 272 271 269 268 267 266 265 264 263 261 258 255 253 251 248 245 242 237 231 227 224 221 217 213 209 207 204 202 202
295 295 295 296 296 297 297 297 296 296 296 295 294 292 291 289 287 286 286 286 287 287 287 288 289 291 291 291 290 289 287 287 286 286 286 286 286 286 286 286 285 284 283 282 282 282 282 281 280 280 278 276 274 272 272 272 271 271 270 269 267 266 265 263 262 262 260 257 255 252 248 244 240 235 230 226 222 218 213 209 206 203 201 200 199
295 296 296 297 298 298 298 298 298 297 296 295 293 291 290 288 287 286 286 286 286 286 286 286 288 289 290 290 290 289 288 287 286 285 285 285 285 285 285 285 284 283 282 281 281 280 279 277 276 275 274 273 272 271 271 271 271 271 270 269 268 267 267 266 266 265 263 260 256 252 248 244 240 235 230 225 220 215 210 207 204 200 198 198 198
299 299 299 300 300 300 300 301 300 299 298 296 294 293 292 291 290 289 289 289 289 288 287 287 286 286 286 287 287 287 286 285 284 283 283 283 283 284 284 283 282 281 281 281 280 277 275 272 272 272 272 271 271 271 271 271 271 271 270 270 269 269 269 268 266 264 262 258 255 251 248 244 239 234 227 221 215 211 208 205 202 199 197 197 197
303 303 302 301 302 301 301 301 301 300 300 299 298 297 297 297 296 296 295 295 295 294 292 290 289 288 287 287 287 287 287 286 285 285 285 285 284 284 283 282 281 280 280 279 276 273 270 269 269 269 269 269 270 270 270 270 270 270 270 270 270 269 268 267 264 262 260 258 254 251 247 243 236 229 222 215 210 207 204 201 199 197 196 196 196
305 304 303 303 303 302 302 303 303 303 303 303 303 303 302 301 300 297 295 293 291 290 288 288 288 288 288 288 289 289 289 289 288 288 287 286 285 284 282 281 279 278 276 275 272 268 266 264 264 265 265 265 266 267 268 269 269 269 270 270 270 270 269 267 265 263 260 257 253 248 244 239 233 225 218 211 207 204 202 199 196 195 195 195 195
308 307 306 305 304 303 304 305 306 308 309 309 307 306 303 300 298 296 294 293 293 292 291 291 291 290 290 290 290 290 289 289 288 287 286 285 283 282 281 279 277 276 274 272 270 266 263 261 261 261 262 263 264 265 266 267 267 268 269 269 270 270 269 267 265 262 259 255 250 245 240 234 228 221 214 208 205 203 200 197 194 193 193 193 192
314 313 312 311 310 309 308 307 306 306 305 303 301 298 297 295 294 294 294 293 292 292 291 290 289 288 288 288 287 286 284 283 282 282 281 280 279 278 278 277 276 275 274 272 270 267 264 262 261 260 261 263 263 263 263 263 264 266 267 269 270 270 268 265 262 260 256 252 247 241 235 228 222 215 209 205 202 200 197 194 193 192 192 191 189
326 323 320 317 314 311 308 305 303 301 299 298 296 295 294 294 294 293 292 291 290 288 287 286 285 284 284 283 283 282 281 280 279 279 279 278 278 277 276 275 274 274 273 273 272 271 269 266 264 263 263 263 264 264 263 264 264 266 267 269 269 268 266 262 259 255 252 248 242 236 229 222 215 210 205 201 199 197 195 193 192 191 190 189 186
Height
1457 1457 1457 1458 1458 1458 1459 1459 1460 1461 1461 1463 1464 1465 1466 1466 1466 1466 1466 1466 1466 1467 1467 1468 1468 1468 1469 1469 1469 1469 1469 1469 1469 1469 1469 1469 1469 1469 1469 1469 1468 1467 1467 1467 1467 1466 1466 1465 1465 1465 1466 1466 1466 1467 1467 1468 1470 1470 1471 1471 1472 1472 1473 1472 1469 1466 1467 1468 1469 1470 1471 1472 1472 1472 1472 1473 1473 1474 1474 1474 1474 1475 1475 1475 1475
1455 1455 1455 1456 1456 1456 1456 1456 1457 1457 1458 1460 1461 1462 1463 1463 1463 1463 1463 1464 1464 1464 1465 1465 1465 1465 1465 1465 1465 1465 1465 1465 1465 1464 1464 1464 1464 1463 1463 1463 1463 1462 1462 1460 1460 1460 1460 1459 1459 1460 1462 1461 1461 1462 1462 1463 1464 1464 1465 1466 1466 1467 1468 1468 1466 1464 1464 1465 1465 1466 1466 1467 1467 1467 1468 1468 1469 1470 1470 1470 1470 1470 1471 1471 1471
1454 1454 1454 1454 1454 1454 1454 1454 1454 1455 1455 1457 1458 1459 1460 1460 1460 1460 1461 1461 1461 1462 1462 1462 1462 1462 1462 1462 1461 1461 1461 1460 1460 1460 1459 1459 1458 1458 1458 1457 1457 1456 1456 1455 1455 1456 1455 1455 1454 1456 1457 1457 1456 1457 1458 1458 1459 1459 1460 1461 1461 1462 1463 1464 1463 1461 1460 1460 1461 1462 1462 1462 1462 1463 1463 1464 1465 1465 1465 1466 1466 1466 1466 1466 1467
1453 1453 1452 1452 1452 1452 1453 1453 1453 1453 1454 1455 1455 1456 1457 1457 1458 1458 1458 1459 1459 1459 1459 1459 1459 1459 1458 1458 1458 1457 1457 1456 1456 1456 1455 1455 1454 1453 1453 1453 1452 1452 1451 1451 1451 1451 1451 1450 1450 1452 1453 1453 1452 1453 1454 1454 1455 1455 1455 1456 1456 1457 1458 1459 1459 1458 1457 1456 1456 1457 1457 1458 1458 1458 1459 1460 1460 1460 1461 1461 1462 1462 1462 1462 1463
1453 1452 1451 1451 1451 1451 1451 1451 1451 1452 1452 1453 1454 1455 1455 1456 1456 1457 1457 1457 1457 1457 1457 1457 1456 1456 1456 1455 1455 1454 1454 1453 1453 1452 1452 1451 1450 1449 1449 1449 1448 1447 1447 1447 1447 1447 1447 1446 1447 1449 1449 1449 1448 1449 1450 1450 1450 1451 1451 1452 1452 1453 1453 1454 1454 1454 1453 1452 1452 1452 1453 1453 1453 1454 1454 1455 1455 1456 1456 1457 1457 1458 1458 1458 1458
1452 1452 1451 1450 1450 1449 1449 1449 1450 1450 1450 1451 1452 1453 1454 1454 1455 1455 1455 1455 1455 1455 1454 1454 1454 1453 1453 1453 1452 1451 1451 1451 1450 1449 1449 1448 1447 1446 1445 1445 1444 1443 1443 1443 1443 1443 1443 1442 1443 1445 1445 1444 1444 1445 1445 1446 1446 1446 1447 1447 1448 1449 1449 1449 1449 1450 1448 1448 1448 1448 1448 1448 1449 1449 1450 1450 1450 1451 1452 1452 1453 1453 1454 1454 1454
1451 1451 1450 1450 1449 1449 1449 1448 1448 1448 1449 1449 1450 1451 1451 1452 1452 1452 1452 1452 1452 1452 1451 1451 1451 1451 1450 1450 1450 1449 1448 1447 1447 1446 1445 1444 1443 1442 1441 1441 1440 1439 1439 1439 1439 1439 1439 1439 1439 1440 1440 1440 1440 1441 1441 1442 1442 1442 1442 1443 1444 1444 1444 1444 1445 1445 1444 1444 1444 1444 1444 1444 1444 1444 1445 1446 1446 1447 1447 1448 1448 1449 1449 1449 1450
1449 1449 1449 1448 1448 1448 1448 1448 1447 1447 1448 1448 1448 1449 1449 1449 1449 1449 1449 1449 1449 1448 1448 1448 1448 1448 1447 1447 1446 1446 1445 1443 1443 1442 1441 1440 1440 1438 1437 1436 1435 1435 1434 1434 1434 1434 1434 1434 1434 1435 1435 1435 1436 1436 1437 1438 1438 1438 1438 1439 1439 1439 1439 1440 1440 1440 1440 1440 1440 1439 1439 1439 1439 1440 1440 1440 1441 1442 1443 1444 1444 1444 1445 1445 1446
1446 1447 1447 1446 1447 1447 1447 1447 1446 1446 1446 1447 1447 1446 1446 1446 1446 1446 1446 1446 1446 1446 1445 1445 1444 1444 1444 1443 1442 1441 1440 1439 1439 1438 1437 1436 1436 1434 1433 1432 1431 1430 1429 1429 1429 1429 1429 1429 1429 1429 1430 1430 1431 1432 1433 1434 1434 1433 1434 1435 1435 1435 1435 1435 1435 1435 1435 1435 1435 1435 1434 1433 1434 1435 1435 1435 1437 1439 1440 1440 1440 1440 1441 1441 1442
1444 1444 1444 1444 1444 1444 1444 1445 1445 1445 1445 1445 1445 1445 1445 1445 1444 1444 1444 1444 1444 1443 1443 1442 1441 1441 1440 1439 1438 1437 1436 1435 1435 1434 1434 1433 1432 1431 1429 1428 1427 1426 1425 1424 1423 1423 1423 1424 1424 1425 1425 1425 1426 1427 1427 1428 1428 1428 1429 1430 1430 1430 1431 1430 1430 1430 1430 1430 1430 1430 1428 1427 1428 1429 1430 1432 1434 1434 1435 1435 1436 1436 1436 1436 1436
1441 1441 1442 1442 1442 1442 1442 1442 1442 1442 1442 1442 1442 1442 1442 1442 1442 1442 1442 1441 1441 1440 1439 1439 1438 1437 1436 1435 1434 1433 1432 1431 1431 1430 1430 1429 1428 1427 1425 1423 1422 1421 1420 1418 1417 1417 1417 1418 1419 1419 1420 1420 1420 1421 1422 1423 1423 1424 1424 1425 1425 1425 1425 1425 1425 1425 1425 1425 1425 1424 1423 1422 1423 1424 1426 1428 1429 1430 1431 1431 1431 1431 1431 1431 1431
1438 1439 1439 1439 1439 1439 1439 1439 1439 1439 1439 1439 1439 1439 1439 1439 1439 1438 1438 1438 1437 1436 1436 1435 1434 1434 1432 1431 1429 1428 1428 1427 1427 1426 1425 1424 1423 1422 1420 1419 1417 1415 1414 1413 1412 1411 1411 1411 1412 1413 1412 1413 1414 1415 1416 1417 1418 1418 1419 1419 1419 1419 1419 1420 1420 1420 1420 1421 1420 1419 1418 1418 1419 1420 1422 1424 1425 1426 1427 1426 1426 1426 1426 1426 1427
1436 1436 1436 1436 1435 1435 1435 1435 1435 1436 1435 1435 1435 1435 1435 1435 1435 1434 1434 1433 1433 1432 1432 1431 1430 1429 1428 1426 1425 1424 1423 1423 1423 1422 1421 1419 1418 1417 1415 1413 1412 1410 1409 1408 1407 1406 1406 1406 1406 1406 1406 1407 1408 1410 1411 1411 1412 1413 1413 1413 1413 1413 1413 1414 1415 1415 1416 1416 1415 1413 1413 1415 1415 1416 1419 1421 1422 1422 1422 1422 1422 1422 1421 1422 1423
1434 1433 1433 1432 1432 1432 1432 1432 1432 1432 1432 1432 1432 1432 1431 1431 1431 1431 1430 1429 1429 1429 1428 1427 1426 1425 1423 1422 1420 1419 1419 1419 1418 1417 1416 1415 1413 1412 1410 1409 1407 1406 1405 1404 1404 1403 1402 1402 1401 1400 1401 1402 1404 1405 1406 1406 1407 1407 1406 1406 1406 1407 1408 1408 1410 1411 1411 1410 1409 1408 1409 1411 1411 1413 1416 1417 1416 1417 1417 1418 1418 1418 1417 1418 1420
1432 1432 1431 1430 1430 1429 1429 1429 1429 1429 1429 1429 1429 1429 1428 1428 1428 1427 1426 1426 1425 1425 1424 1423 1422 1421 1419 1417 1415 1414 1414 1414 1414 1413 1412 1410 1409 1407 1405 1404 1403 1401 1400 1400 1400 1399 1398 1398 1397 1396 1396 1397 1398 1400 1401 1401 1401 1400 1400 1400 1400 1401 1402 1403 1405 1407 1406 1405 1405 1405 1406 1408 1408 1410 1411 1411 1412 1413 1414 1414 1415 1415 1414 1415 1416
1430 1430 1429 1429 1428 1428 1427 1427 1427 1427 1426 1426 1426 1426 1425 1425 1424 1424 1423 1422 1422 1421 1420 1419 1418 1417 1416 1414 1411 1409 1409 1409 1409 1408 1407 1406 1405 1403 1401 1399 1398 1396 1396 1396 1396 1395 1395 1394 1393 1392 1391 1392 1393 1394 1395 1396 1396 1394 1394 1394 1395 1395 1396 1398 1401 1402 1401 1400 1401 1402 1403 1404 1405 1406 1407 1407 1408 1409 1410 1410 1411 1410 1410 1411 1412
1428 1427 1427 1427 1426 1426 1425 1424 1424 1424 1424 1423 1423 1423 1422 1422 1421 1420 1419 1419 1418 1418 1417 1416 1415 1413 1412 1411 1409 1407 1405 1404 1403 1402 1401 1400 1399 1398 1397 1395 1393 1392 1391 1391 1391 1390 1390 1389 1389 1388 1387 1387 1387 1388 1390 1391 1390 1389 1389 1389 1389 1389 1389 1393 1396 1396 1395 1396 1397 1398 1399 1400 1401 1401 1402 1403 1404 1405 1405 1405 1405 1406 1406 1406 1407
1426 1426 1425 1425 1424 1424 1423 1422 1421 1421 1421 1421 1420 1420 1419 1419 1418 1417 1416 1415 1415 1414 1413 1412 1411 1410 1409 1408 1406 1404 1402 1401 1399 1398 1396 1395 1394 1393 1392 1390 1388 1387 1386 1387 1387 1386 1385 1385 1385 1384 1383 1383 1383 1383 1384 1385 1385 1384 1384 1384 1383 1382 1383 1388 1390 1389 1389 1391 1393 1394 1394 1395 1396 1397 1397 1398 1399 1399 1399 1400 1401 1402 1402 1402 1403
1424 1424 1424 1423 1423 1422 1421 1420 1419 1418 1418 1418 1417 1417 1416 1416 1415 1414 1413 1412 1411 1411 1410 1408 1407 1406 1405 1404 1402 1401 1399 1398 1397 1395 1392 1391 1389 1388 1387 1385 1382 1382 1382 1382 1381 1381 1380 1380 1380 1380 1379 1379 1378 1378 1378 1379 1378 1378 1378 1379 1378 1377 1379 1383 1384 1384 1385 1386 1387 1388 1389 1391 1392 1393 1393 1393 1394 1394 1395 1395 1396 1397 1397 1398 1399
1422 1422 1422 1421 1421 1420 1420 1419 1417 1416 1416 1415 1415 1414 1413 1413 1412 1411 1410 1409 1408 1407 1406 1404 1403 1402 1401 1400 1398 1397 1395 1394 1393 1391 1389 1387 1385 1384 1382 1380 1378 1377 1377 1376 1375 1374 1374 1374 1375 1375 1375 1374 1373 1373 1373 1373 1373 1373 1374 1374 1372 1372 1375 1378 1379 1380 1381 1381 1382 1383 1384 1385 1386 1387 1387 1387 1388 1389 1391 1391 1391 1393 1394 1394 1395
1419 1419 1419 1419 1419 1418 1418 1417 1416 1415 1414 1412 1412 1411 1410 1409 1408 1407 1406 1405 1404 1403 1402 1401 1399 1398 1397 1396 1395 1393 1392 1390 1389 1387 1386 1384 1382 1380 1378 1376 1375 1373 1371 1369 1368 1367 1367 1368 1369 1370 1370 1369 1368 1367 1367 1367 1368 1368 1368 1368 1368 1370 1371 1373 1374 1375 1376 1376 1377 1377 1377 1378 1379 1380 1381 1382 1383 1385 1386 1386 1387 1389 1390 1390 1390
1416 1416 1415 1415 1415 1415 1415 1414 1413 1413 1412 1410 1409 1408 1408 1407 1405 1404 1403 1401 1400 1399 1398 1397 1395 1393 1392 1392 1391 1390 1389 1387 1385 1383 1382 1380 1378 1376 1374 1373 1371 1369 1366 1363 1361 1361 1361 1362 1363 1363 1364 1363 1362 1362 1362 1362 1363 1363 1363 1364 1366 1367 1367 1368 1370 1371 1371 1371 1372 1371 1371 1372 1373 1374 1375 1377 1378 1380 1382 1382 1384 1385 1386 1386 1386
1413 1412 1412 1411 1411 1411 1411 1411 1410 1409 1409 1408 1406 1405 1405 1404 1402 1401 1400 1398 1397 1395 1394 1393 1391 1389 1387 1387 1386 1386 1385 1384 1382 1380 1378 1376 1374 1372 1370 1368 1367 1365 1362 1359 1357 1356 1356 1356 1356 1357 1357 1357 1356 1356 1357 1358 1358 1358 1359 1361 1362 1363 1363 1364 1365 1366 1367 1367 1367 1366 1366 1367 1368 1368 1370 1372 1375 1377 1378 1379 1380 1380 1381 1382 1382
1410 1409 1409 1408 1407 1407 1407 1407 1407 1406 1405 1405 1403 1403 1402 1401 1400 1399 1397 1396 1394 1392 1391 1389 1388 1385 1383 1381 1381 1381 1380 1379 1378 1376 1375 1373 1370 1368 1366 1363 1362 1361 1359 1356 1354 1353 1351 1351 1350 1350 1350 1350 1350 1350 1350 1352 1353 1354 1355 1356 1357 1358 1358 1359 1359 1361 1362 1361 1360 1360 1361 1362 1363 1364 1366 1369 1372 1373 1374 1374 1375 1375 1376 1377 1378
1407 1406 1405 1404 1404 1404 1404 1403 1403 1403 1402 1401 1400 1399 1398 1397 1396 1395 1394 1393 1392 1390 1388 1386 1385 1383 1380 1378 1376 1376 1375 1375 1374 1373 1371 1369 1366 1364 1362 1360 1358 1356 1354 1353 1351 1350 1348 1346 1345 1344 1343 1343 1344 1344 1344 1345 1347 1349 1350 1351 1351 1352 1352 1352 1353 1354 1354 1354 1354 1355 1356 1358 1360 1361 1363 1366 1368 1368 1368 1369 1369 1370 1371 1373 1374
1403 1402 1402 1401 1400 1400 1399 1399 1399 1398 1398 1397 1396 1395 1394 1393 1392 1391 1390 1389 1388 1386 1385 1383 1381 1379 1377 1375 1373 1372 1370 1370 1369 1369 1368 1365 1362 1360 1358 1356 1354 1352 1350 1348 1347 1346 1344 1343 1341 1339 1338 1337 1337 1338 1338 1339 1341 1343 1345 1346 1346 1346 1346 1346 1347 1347 1348 1348 1350 1352 1353 1355 1356 1358 1359 1360 1361 1362 1363 1364 1365 1366 1367 1369 1370
1400 1399 1398 1397 1397 1396 1395 1394 1393 1393 1392 1392 1391 1390 1390 1389 1387 1386 1385 1384 1383 1382 1381 1380 1378 1376 1374 1372 1370 1368 1366 1365 1365 1365 1364 1361 1359 1357 1355 1353 1351 1349 1347 1345 1343 1341 1339 1338 1336 1335 1333 1332 1331 1332 1333 1333 1334 1336 1338 1340 1340 1340 1340 1341 1341 1341 1343 1344 1346 1348 1350 1350 1351 1351 1352 1353 1354 1356 1358 1359 1361 1362 1363 1365 1366
1396 1395 1394 1393 1393 1392 1391 1390 1389 1388 1387 1387 1386 1385 1385 1384 1383 1382 1381 1380 1379 1378 1377 1376 1374 1373 1371 1369 1367 1365 1363 1361 1361 1360 1359 1357 1355 1353 1351 1349 1347 1345 1343 1341 1339 1337 1334 1332 1331 1330 1328 1327 1326 1326 1327 1328 1328 1328 1329 1332 1333 1334 1335 1336 1336 1337 1337 1339 1341 1343 1344 1344 1345 1345 1346 1347 1349 1351 1353 1354 1356 1358 1360 1361 1361
1392 1391 1390 1390 1389 1388 1388 1386 1385 1384 1383 1382 1382 1381 1380 1380 1378 1377 1376 1376 1375 1373 1372 1371 1370 1369 1368 1366 1364 1362 1359 1357 1358 1357 1355 1353 1351 1349 1347 1345 1344 1342 1340 1338 1335 1332 1330 1327 1325 1325 1324 1323 1322 1322 1322 1324 1324 1323 1322 1323 1325 1327 1329 1330 1330 1331 1333 1335 1336 1336 1337 1338 1340 1341 1342 1343 1344 1346 1347 1348 1350 1353 1356 1356 1357
1388 1387 1387 1386 1385 1384 1383 1382 1381 1380 1379 1377 1376 1375 1375 1375 1374 1372 1371 1370 1370 1369 1367 1365 1364 1364 1363 1361 1360 1359 1355 1353 1353 1353 1352 1350 1348 1346 1344 1342 1340 1338 1336 1335 1332 1328 1325 1323 1321 1320 1319 1319 1318 1317 1318 1321 1323 1323 1321 1320 1319 1319 1320 1322 1324 1327 1329 1331 1331 1331 1332 1334 1335 1337 1337 1338 1340 1341 1342 1343 1345 1348 1350 1351 1352
1385 1384 1383 1382 1382 1381 1379 1378 1377 1376 1375 1374 1372 1370 1368 1367 1367 1367 1366 1365 1363 1362 1361 1360 1359 1358 1357 1355 1354 1353 1352 1350 1349 1348 1347 1346 1345 1343 1341 1339 1336 1334 1333 1331 1327 1324 1322 1320 1317 1316 1315 1315 1313 1313 1314 1315 1316 1318 1320 1320 1318 1316 1315 1315 1317 1321 1325 1327 1327 1327 1327 1329 1330 1331 1332 1333 1334 1336 1337 1338 1340 1343 1345 1346 1347
1382 1381 1380 1379 1378 1377 1376 1375 1374 1372 1371 1369 1368 1366 1363 1360 1359 1358 1359 1359 1357 1356 1354 1354 1353 1353 1352 1350 1349 1347 1346 1345 1344 1343 1342 1341 1340 1338 1336 1335 1333 1331 1329 1327 1323 1320 1318 1316 1313 1312 1311 1310 1309 1310 1310 1309 1309 1311 1313 1314 1314 1314 1313 1312 1313 1316 1319 1322 1322 1323 1323 1324 1325 1326 1327 1328 1329 1330 1331 1332 1334 1337 1339 1341 1343
1378 1377 1376 1375 1374 1373 1372 1371 1369 1368 1367 1365 1363 1361 1359 1356 1352 1349 1348 1349 1349 1349 1349 1347 1346 1346 1345 1345 1344 1342 1340 1339 1338 1337 1336 1335 1334 1333 1331 1330 1328 1326 1324 1322 1319 1316 1314 1312 1310 1308 1307 1306 1305 1306 1306 1305 1305 1305 1306 1306 1307 1309 1311 1312 1312 1312 1313 1315 1317 1318 1319 1320 1320 1321 1322 1323 1324 1324 1325 1326 1329 1332 1334 1335 1337
1374 1373 1372 1371 1369 1368 1367 1365 1364 1362 1361 1359 1358 1356 1354 1352 1349 1346 1342 1339 1338 1339 1340 1340 1340 1339 1338 1338 1337 1336 1334 1333 1333 1332 1331 1330 1329 1328 1326 1324 1322 1321 1320 1317 1314 1312 1310 1308 1306 1304 1303 1302 1301 1301 1301 1301 1302 1302 1301 1301 1302 1303 1306 1308 1308 1308 1309 1310 1312 1313 1314 1315 1315 1315 1316 1317 1318 1319 1320 1321 1323 1326 1328 1329 1332
1369 1368 1367 1366 1364 1363 1361 1360 1358 1357 1355 1353 1352 1350 1348 1347 1345 1343 1340 1337 1333 1330 1329 1330 1331 1332 1331 1330 1330 1329 1329 1328 1327 1326 1325 1324 1324 1323 1321 1317 1316 1315 1314 1312 1310 1308 1306 1304 1302 1301 1299 1298 1297 1297 1296 1296 1297 1297 1297 1297 1297 1298 1299 1300 1302 1303 1305 1306 1307 1308 1309 1310 1310 1310 1311 1311 1312 1313 1314 1316 1318 1320 1323 1325 1327
1364 1362 1361 1360 1359 1357 1356 1354 1353 1351 1349 1348 1346 1344 1343 1341 1339 1338 1336 1334 1331 1328 1324 1322 1322 1323 1323 1322 1322 1322 1322 1322 1321 1320 1319 1318 1318 1317 1315 1312 1310 1309 1308 1306 1305 1303 1301 1299 1297 1296 1295 1294 1292 1292 1292 1291 1291 1292 1293 1294 1294 1293 1293 1293 1295 1297 1299 1300 1301 1302 1303 1304 1305 1306 1306 1307 1307 1308 1309 1311 1313 1315 1318 1320 1323
1357 1356 1355 1354 1353 1351 1349 1348 1347 1346 1344 1342 1340 1339 1337 1335 1334 1332 1330 1328 1326 1324 1321 1318 1316 1315 1314 1314 1315 1314 1314 1314 1314 1313 1312 1312 1311 1310 1308 1306 1305 1303 1301 1299 1299 1297 1295 1293 1292 1291 1290 1289 1288 1287 1287 1287 1287 1287 1288 1289 1289 1289 1288 1288 1289 1291 1293 1295 1296 1297 1297 1298 1299 1300 1301 1302 1303 1303 1304 1306 1308 1311 1313 1315 1318
1351 1350 1349 1347 1346 1345 1343 1341 1340 1339 1338 1336 1335 1333 1331 1329 1328 1327 1325 1323 1321 1319 1317 1314 1312 1310 1308 1307 1308 1308 1307 1306 1306 1305 1305 1305 1304 1303 1301 1300 1298 1296 1294 1293 1293 1291 1289 1287 1286 1285 1285 1284 1283 1283 1283 1282 1282 1282 1283 1283 1284 1284 1284 1284 1284 1285 1286 1289 1290 1292 1292 1293 1294 1295 1295 1296 1298 1299 1300 1302 1303 1305 1307 1310 1313
1344 1343 1342 1341 1340 1338 1337 1335 1334 1333 1331 1330 1328 1327 1325 1323 1322 1321 1319 1317 1315 1313 1311 1309 1307 1305 1303 1303 1302 1302 1301 1299 1297 1297 1296 1296 1296 1295 1294 1293 1291 1290 1288 1287 1286 1285 1283 1281 1280 1280 1279 1278 1278 1278 1278 1278 1278 1278 1278 1278 1279 1279 1279 1279 1279 1279 1281 1282 1284 1286 1287 1287 1288 1289 1290 1291 1293 1294 1296 1297 1298 1299 1301 1303 1307
1337 1335 1335 1334 1332 1331 1330 1328 1327 1326 1325 1324 1322 1321 1319 1317 1316 1314 1313 1311 1309 1306 1305 1303 1300 1298 1298 1298 1298 1297 1295 1292 1290 1290 1289 1288 1287 1287 1286 1285 1284 1283 1282 1281 1280 1279 1278 1276 1275 1274 1273 1273 1273 1274 1274 1274 1274 1274 1273 1273 1273 1273 1274 1274 1275 1275 1276 1277 1278 1279 1280 1281 1282 1284 1285 1287 1288 1289 1291 1293 1294 1295 1297 1299 1303
1330 1328 1327 1326 1325 1324 1322 1321 1320 1319 1318 1317 1316 1315 1313 1311 1310 1308 1307 1305 1302 1300 1298 1296 1293 1291 1292 1292 1292 1292 1291 1287 1284 1283 1283 1281 1281 1280 1279 1278 1277 1276 1275 1274 1273 1273 1272 1270 1270 1269 1268 1268 1268 1269 1270 1270 1270 1269 1269 1268 1268 1268 1268 1268 1269 1270 1270 1271 1272 1273 1274 1275 1276 1277 1279 1281 1283 1285 1287 1289 1290 1292 1294 1296 1299
1323 1322 1321 1320 1319 1317 1315 1314 1313 1312 1311 1310 1309 1308 1307 1305 1304 1302 1300 1298 1296 1294 1292 1289 1286 1285 1285 1286 1286 1287 1285 1281 1278 1277 1276 1275 1274 1273 1272 1271 1270 1269 1268 1267 1267 1266 1265 1264 1264 1263 1263 1263 1264 1264 1265 1265 1265 1264 1264 1263 1263 1263 1262 1263 1263 1264 1265 1266 1266 1267 1268 1269 1270 1272 1274 1276 1278 1279 1281 1283 1286 1288 1289 1291 1294
1317 1316 1314 1313 1312 1311 1309 1307 1306 1305 1304 1303 1302 1301 1300 1299 1298 1296 1294 1292 1290 1289 1286 1283 1280 1279 1279 1279 1280 1281 1279 1276 1273 1271 1270 1268 1268 1266 1265 1265 1264 1263 1262 1261 1261 1260 1260 1259 1258 1258 1258 1258 1259 1260 1260 1260 1260 1259 1259 1258 1258 1257 1257 1257 1258 1259 1260 1260 1261 1262 1263 1264 1265 1266 1268 1270 1273 1274 1276 1278 1281 1283 1284 1287 1290
1311 1309 1308 1306 1305 1304 1303 1301 1300 1299 1298 1297 1295 1294 1294 1293 1292 1290 1288 1286 1284 1283 1281 1278 1276 1274 1272 1272 1273 1274 1272 1270 1268 1266 1264 1263 1261 1260 1259 1258 1258 1257 1256 1255 1255 1254 1254 1253 1252 1252 1252 1253 1254 1254 1254 1255 1255 1254 1253 1253 1253 1252 1252 1252 1253 1254 1256 1256 1257 1257 1258 1259 1260 1262 1263 1264 1267 1269 1271 1273 1275 1277 1280 1282 1286
1305 1303 1302 1300 1299 1297 1296 1295 1294 1293 1292 1291 1290 1288 1287 1287 1285 1284 1282 1280 1278 1277 1275 1273 1272 1270 1268 1267 1267 1267 1265 1264 1262 1261 1259 1257 1255 1254 1253 1252 1252 1251 1250 1249 1249 1248 1248 1247 1247 1246 1246 1247 1248 1249 1249 1249 1249 1248 1248 1247 1247 1247 1247 1248 1249 1250 1251 1252 1252 1253 1253 1254 1256 1257 1258 1259 1261 1263 1266 1268 1270 1273 1275 1279 1283
1299 1298 1296 1294 1293 1292 1290 1289 1289 1288 1287 1286 1284 1282 1281 1280 1279 1278 1276 1274 1272 1271 1269 1268 1267 1266 1264 1262 1261 1261 1260 1258 1257 1255 1253 1251 1250 1248 1247 1246 1246 1245 1244 1243 1243 1243 1242 1242 1242 1241 1241 1241 1242 1243 1243 1243 1243 1242 1242 1242 1241 1242 1243 1244 1245 1246 1247 1247 1248 1249 1250 1251 1252 1253 1254 1256 1257 1259 1262 1264 1267 1270 1273 1276 1281
1294 1292 1291 1290 1288 1287 1286 1285 1284 1283 1282 1281 1280 1278 1276 1274 1273 1272 1270 1269 1267 1266 1264 1263 1262 1260 1259 1257 1256 1255 1254 1252 1251 1249 1247 1245 1244 1243 1242 1241 1240 1239 1238 1237 1237 1237 1237 1236 1236 1236 1236 1236 1236 1236 1237 1237 1237 1237 1236 1236 1236 1237 1238 1239 1240 1241 1242 1243 1244 1245 1246 1247 1248 1250 1252 1254 1255 1257 1259 1261 1264 1268 1271 1276 1280
1290 1288 1287 1286 1285 1283 1282 1281 1280 1279 1278 1277 1275 1273 1271 1270 1268 1267 1266 1264 1263 1262 1260 1258 1257 1255 1254 1252 1251 1249 1248 1247 1245 1243 1241 1240 1238 1237 1237 1236 1235 1234 1233 1232 1231 1231 1231 1230 1230 1230 1230 1230 1230 1230 1231 1231 1231 1231 1231 1231 1231 1232 1233 1234 1236 1236 1237 1238 1239 1240 1241 1243 1244 1246 1248 1251 1254 1255 1256 1259 1262 1266 1270 1275 1280
1286 1285 1284 1283 1282 1280 1279 1278 1277 1275 1274 1273 1271 1270 1268 1267 1265 1263 1262 1260 1258 1257 1255 1254 1252 1251 1249 1247 1246 1244 1243 1242 1240 1238 1237 1235 1233 1232 1231 1230 1229 1229 1228 1227 1226 1225 1224 1224 1224 1224 1225 1225 1225 1225 1225 1225 1225 1225 1225 1225 1226 1227 1228 1229 1230 1231 1232 1234 1235 1236 1237 1239 1241 1243 1245 1248 1252 1254 1256 1258 1261 1264 1268 1274 1278
1284 1282 1281 1280 1278 1277 1276 1275 1274 1273 1272 1270 1268 1267 1265 1264 1262 1260 1258 1256 1254 1252 1251 1250 1248 1247 1245 1243 1241 1239 1238 1236 1234 1233 1231 1230 1228 1227 1226 1224 1223 1223 1222 1221 1221 1220 1219 1218 1218 1219 1219 1219 1219 1219 1219 1219 1219 1219 1220 1220 1220 1221 1223 1224 1225 1226 1228 1229 1231 1232 1233 1235 1237 1240 1243 1246 1250 1253 1255 1258 1261 1264 1268 1273 1277
1281 1280 1279 1278 1276 1275 1274 1273 1272 1271 1269 1267 1266 1264 1262 1259 1257 1255 1253 1251 1249 1247 1246 1244 1243 1241 1239 1238 1236 1234 1232 1230 1228 1227 1225 1224 1222 1221 1220 1218 1217 1217 1216 1216 1215 1215 1214 1213 1213 1213 1213 1214 1214 1214 1214 1214 1214 1214 1214 1214 1215 1216 1217 1219 1220 1222 1224 1226 1228 1229 1230 1231 1233 1237 1240 1244 1247 1251 1254 1258 1262 1266 1270 1275 1276